Regional Weather Roundup
Issued by NWS

Home | Current Version | Previous Version | Graphics & Text | Print | Product List | Glossary On
Versions: 1 2 3 4 5 6 7 8 9 10 11 12 13 14 15 16 17 18 19 20 21 22 23 24 25 26 27 28 29 30 31 32 33 34 35 36 37 38 39 40 41 42 43 44 45 46 47 48 49 50
000
ASUS43 KDMX 271607
RWRIA

WEATHER ROUNDUP FOR IOWA
NATIONAL WEATHER SERVICE DES MOINES IA
1100 AM CDT WED AUG 27 2014

NOTE: "FAIR" INDICATES FEW OR NO CLOUDS BELOW 12,000 FEET WITH NO
SIGNIFICANT WEATHER AND/OR OBSTRUCTIONS TO VISIBILITY.

* - THESE STATIONS ARE NOT NWS STATIONS...THUS NOT UNDER NWS
QUALITY CONTROL.  THEY ALSO DO NOT REPORT WEATHER SUCH
AS PRECIPITATION OR FOG.

IAZ001>003-012>014-020>022-031>034-043>046-271700-
   NORTHWEST IOWA

CITY           SKY/WX    TMP DP  RH WIND       PRES   REMARKS
CARROLL *      CLOUDY    66  64  94 CALM      30.19R
CHEROKEE *     CLOUDY    63  61  94 NE5       30.21S
DENISON *      LGT RAIN  66  66 100 CALM      30.20R
LE MARS *      CLOUDY    64  61  88 CALM      30.20F
ORANGE CITY *  MOSUNNY   64  57  77 E5        30.21F
SHELDON *      SUNNY     64  61  88 E6        30.21R
SIOUX CITY     LGT RAIN  65  63  93 E7        30.17F
SPENCER        CLOUDY    65  59  81 SE8       30.22R
STORM LAKE *   MOSUNNY   63  63 100 NE8       30.21S
$$

IAZ055>058-069>071-079>083-090>094-271700-
   SOUTHWEST IOWA

CITY           SKY/WX    TMP DP  RH WIND       PRES   REMARKS
ATLANTIC *     DRIZZLE   68  66  94 CALM      30.18R
AUDUBON *      PTSUNNY   70  66  88 E3        30.21R
CLARINDA *     HVY RAIN  68  68 100 S12       30.21R VSB 1/4
COUNCIL BLFS * RAIN      68  68 100 N5        30.18S
CRESTON *      PTSUNNY   70  68  94 VRB3      30.18R
HARLAN  *      HVY RAIN  68  66  94 CALM      30.24R
LAMONI         CLOUDY    70  68  93 W5        30.17R
RED OAK *      CLOUDY    70  68  94 SE5       30.18S FOG
SHENANDOAH *   CLOUDY    70  70 100 SE12      30.18R
$$

IAZ047>049-059>061-072>074-084-271700-
   CENTRAL IOWA

CITY           SKY/WX    TMP DP  RH WIND       PRES   REMARKS
AMES           PTSUNNY   71  63  75 E6        30.18S
ANKENY *       SUNNY     72  64  78 E6        30.18R
CHARITON *     MOSUNNY   70  66  88 NE6       30.17R
DES MOINES     CLOUDY    73  64  73 E8        30.17R
GRINNELL*      PTSUNNY   70  63  78 E5        30.20R
KNOXVILLE *    SUNNY     70  64  83 VRB7      30.16R
MARSHALLTOWN   PTSUNNY   71  62  73 E7        30.19R
PELLA *        CLOUDY    70  64  83 SE7       30.20R
PERRY *        PTSUNNY   72  64  78 SE6       30.19R
$$

IAZ004>006-015-016-023>025-035-036-271700-
   NORTH CENTRAL IOWA

CITY           SKY/WX    TMP DP  RH WIND       PRES   REMARKS
ALGONA *       SUNNY     68  59  73 SE5       30.23R
CLARION *      SUNNY     70  61  73 E6        30.21S
ESTHERVILLE    CLOUDY    64  58  80 SE6       30.23R
FORT DODGE *   CLOUDY    68  61  77 E6        30.21S
MASON CITY     CLOUDY    69  57  65 E6        30.24R
FOREST CITY *  MOSUNNY   68  55  64 E7        30.23S
IOWA FALLS *     N/A     70  59  68 SE6       30.22R
$$

IAZ007>011-017>019-026>030-037>042-050>054-066-271700-
   NORTHEAST IOWA

CITY           SKY/WX    TMP DP  RH WIND       PRES   REMARKS
CEDAR RAPIDS   CLOUDY    71  62  73 E7        30.17S
CHARLES CITY * SUNNY     70  55  60 VRB5      30.23R
CLINTON *      CLOUDY    72  61  68 E3        30.19S
DUBUQUE        MOSUNNY   71  60  68 NE5       30.20R
MONTICELLO *   SUNNY     73  61  64 CALM      30.18S
OELWEIN *      SUNNY     72  57  60 E6        30.21R
WATERLOO       CLOUDY    72  56  57 E6        30.19R
$$

IAZ064-065-067-068-078-271700-
   EAST CENTRAL IOWA

CITY           SKY/WX    TMP DP  RH WIND       PRES   REMARKS
DAVENPORT      CLOUDY    73  62  68 E6        30.17S
IOWA CITY      CLOUDY    72  63  73 E6        30.18R
MT. PLEASANT * CLOUDY    75  64  69 CALM      30.18R
MUSCATINE *    SUNNY     75  64  69 NE6       30.16R
QUAD CITIES    CLOUDY    75  62  64 E5        30.15S
$$

IAZ062-063-075>077-085>089-095>099-271700-
   SOUTHEAST IOWA

CITY           SKY/WX    TMP DP  RH WIND       PRES   REMARKS
BURLINGTON     CLOUDY    76  68  76 E6        30.14R
FAIRFIELD *    MOSUNNY   70  66  88 N5        30.18S
FORT MADISON * PTSUNNY   75  70  83 CALM      30.17R
KEOKUK *       MOSUNNY   75  70  83 N5        30.15R
OSKALOOSA *    LGT RAIN  66  64  94 CALM      30.19R
CENTERVILLE *  LGT RAIN  68  68 100 CALM      30.18R
OTTUMWA        LGT RAIN  67  65  93 CALM      30.17F
WASHINGTON *   MOSUNNY   70  66  88 CALM      30.19R
$$

ABBREVIATIONS USED IN REMARKS
   TC - TEMPERATURES IN CELSIUS
  WCI - WIND CHILL INDEX
   HX - HEAT INDEX
  VSB - VISIBILITY
$$




USA.gov is the U.S. government's official web portal to all federal, state and local government web resources and services.